Date String (YYYY-MM-DD hh:mm:ss) UTC,Instrument flags,absolute air pressure of the measurement (hPa),sample flow rate (lpm),inlet stack bypass flow (lpm),air temperature of the measurement (°C),ambient temperature measured by the external sensor (°C),aerosol sample conditioner tube jacket temperature (°C),OPC LED temperature (°C),internal box temperature (°C),relative humidity of the measurement (%),span deviation,mass concentration of particles derived from Lorenz-Mie calculation of OPC scattering (μg/m³),mass concentration of particles derived from Lorenz-Mie calculation of OPC scattering (μg/m³),mass concentration of particles derived from Lorenz-Mie calculation of OPC scattering (μg/m³)
DateTimeUTC,F1_M11,P_M11,Q1_M11,Q2_M11,T1_M11,T2_M11,T3_M11,T4_M11,T5_M11,U1_M11,ZSPAN_M11,X2_M11,X0_M11,X1_M11
2023-12-07 23:00:00,SystemResetWarning,0817.3,5.00,000.00,025.7,024.6,000.0,034.0,027.0,9.5,0000.0,0001.38,0003.60,0001.00
2023-12-07 23:01:00,SystemResetWarning,0817.4,4.99,000.00,025.7,024.6,000.0,034.1,026.9,9.4,0000.0,0001.40,0003.69,0000.99
2023-12-07 23:02:00,SystemResetWarning,0817.5,5.00,000.00,025.7,024.6,000.0,034.1,026.8,9.5,0000.0,0001.41,0003.72,0000.99
2023-12-07 23:03:00,SystemResetWarning,0817.5,5.01,000.00,025.6,024.5,000.0,034.0,026.8,9.5,0000.0,0001.39,0003.61,0000.98
2023-12-07 23:04:00,SystemResetWarning,0817.7,5.02,000.00,025.6,024.5,000.0,034.0,026.8,9.5,0000.0,0001.42,0003.70,0000.99
2023-12-07 23:05:00,SystemResetWarning,0817.9,4.99,000.00,025.6,024.5,000.0,034.0,026.8,9.6,0000.0,0001.45,0003.87,0001.00
2023-12-07 23:06:00,SystemResetWarning,0817.4,4.99,000.00,025.6,024.5,000.0,034.0,026.8,9.6,0000.0,0001.46,0004.00,0001.01
2023-12-07 23:07:00,SystemResetWarning,0817.7,5.01,000.00,025.6,024.4,000.0,034.0,026.7,9.7,0000.0,0001.50,0004.08,0001.00
2023-12-07 23:08:00,SystemResetWarning,0817.7,5.00,000.00,025.6,024.4,000.0,034.0,026.8,9.7,0000.0,0001.51,0004.12,0001.00
2023-12-07 23:09:00,SystemResetWarning,0817.6,4.99,000.00,025.6,024.4,000.0,034.0,026.8,9.8,0000.0,0001.56,0004.29,0001.00
2023-12-07 23:10:00,SystemResetWarning,0817.8,5.00,000.00,025.6,024.4,000.0,033.9,026.8,9.7,0000.0,0001.56,0002.95,0001.00
2023-12-07 23:11:00,SystemResetWarning,0817.6,5.00,000.00,025.5,024.4,000.0,033.9,026.8,9.8,0000.0,0001.52,0002.97,0000.99
2023-12-07 23:12:00,SystemResetWarning,0817.9,5.01,000.00,025.5,024.4,000.0,033.9,026.7,9.9,0000.0,0001.52,0003.64,0001.01
2023-12-07 23:13:00,SystemResetWarning,0817.8,5.00,000.00,025.5,024.4,000.0,033.9,026.7,9.9,0000.0,0001.55,0003.73,0001.02
2023-12-07 23:14:00,SystemResetWarning,0817.9,5.01,000.00,025.5,024.3,000.0,033.9,026.7,10.0,0000.0,0001.55,0003.69,0001.04
2023-12-07 23:15:00,SystemResetWarning,0817.8,5.00,000.00,025.5,024.3,000.0,033.9,026.6,10.0,0000.0,0001.54,0004.47,0001.03
2023-12-07 23:16:00,SystemResetWarning,0817.9,4.98,000.00,025.5,024.3,000.0,033.9,026.6,10.1,0000.0,0001.58,0004.55,0001.03
2023-12-07 23:17:00,SystemResetWarning,0817.9,5.00,000.00,025.4,024.3,000.0,033.9,026.6,10.1,0000.0,0001.57,0005.70,0001.03
2023-12-07 23:18:00,SystemResetWarning,0817.9,5.00,000.00,025.4,024.3,000.0,033.9,026.6,10.1,0000.0,0001.63,0007.06,0001.04
2023-12-07 23:19:00,SystemResetWarning,0817.9,5.00,000.00,025.4,024.3,000.0,033.8,026.6,10.1,0000.0,0001.65,0007.17,0001.05
2023-12-07 23:20:00,SystemResetWarning,0817.9,5.00,000.00,025.4,024.2,000.0,033.8,026.6,10.1,0000.0,0001.62,0007.15,0001.04
2023-12-07 23:21:00,SystemResetWarning,0818.0,5.00,000.00,025.4,024.2,000.0,033.8,026.6,10.0,0000.0,0001.64,0007.26,0001.04
2023-12-07 23:22:00,SystemResetWarning,0818.1,5.00,000.00,025.4,024.2,000.0,033.8,026.6,10.0,0000.0,0001.67,0007.40,0001.05
2023-12-07 23:23:00,SystemResetWarning,0818.2,5.00,000.00,025.4,024.1,000.0,033.8,026.6,10.1,0000.0,0001.67,0006.67,0001.04
2023-12-07 23:24:00,SystemResetWarning,0818.1,5.00,000.00,025.4,024.1,000.0,033.8,026.6,10.1,0000.0,0001.65,0006.61,0001.04
2023-12-07 23:25:00,SystemResetWarning,0818.0,5.00,000.00,025.4,024.1,000.0,033.8,026.6,10.1,0000.0,0001.65,0006.65,0001.04
2023-12-07 23:26:00,SystemResetWarning,0818.2,5.01,000.00,025.4,024.1,000.0,033.8,026.6,10.2,0000.0,0001.67,0006.32,0001.04
2023-12-07 23:27:00,SystemResetWarning,0818.1,5.00,000.00,025.3,024.1,000.0,033.7,026.5,10.2,0000.0,0001.64,0006.88,0001.04
2023-12-07 23:28:00,SystemResetWarning,0818.1,5.00,000.00,025.3,024.1,000.0,033.7,026.6,10.3,0000.0,0001.66,0006.65,0001.05
2023-12-07 23:29:00,SystemResetWarning,0818.2,4.99,000.00,025.3,024.1,000.0,033.7,026.6,10.5,0000.0,0001.63,0006.68,0001.04
2023-12-07 23:30:00,SystemResetWarning,0818.4,5.00,000.00,025.3,024.1,000.0,033.7,026.6,10.5,0000.0,0001.61,0006.81,0001.04
2023-12-07 23:31:00,SystemResetWarning,0818.4,5.01,000.00,025.3,024.1,000.0,033.7,026.6,10.5,0000.0,0001.58,0007.87,0001.04
2023-12-07 23:32:00,SystemResetWarning,0818.5,5.01,000.00,025.3,024.1,000.0,033.7,026.6,10.6,0000.0,0001.59,0007.99,0001.05
2023-12-07 23:33:00,SystemResetWarning,0818.4,5.01,000.00,025.3,024.1,000.0,033.7,026.5,10.7,0000.0,0001.60,0007.97,0001.06
2023-12-07 23:34:00,SystemResetWarning,0818.5,4.99,000.00,025.3,024.1,000.0,033.7,026.6,10.7,0000.0,0001.61,0007.96,0001.05
2023-12-07 23:35:00,SystemResetWarning,0818.6,5.00,000.00,025.3,024.1,000.0,033.7,026.6,10.6,0000.0,0001.64,0008.00,0001.05
2023-12-07 23:36:00,SystemResetWarning,0818.7,4.99,000.00,025.3,024.0,000.0,033.7,026.6,10.7,0000.0,0001.67,0008.04,0001.06
2023-12-07 23:37:00,SystemResetWarning,0818.6,5.00,000.00,025.3,024.1,000.0,033.7,026.6,10.8,0000.0,0001.65,0007.98,0001.05
2023-12-07 23:38:00,SystemResetWarning,0818.7,5.00,000.00,025.3,024.1,000.0,033.7,026.6,10.9,0000.0,0001.65,0007.44,0001.04
2023-12-07 23:39:00,SystemResetWarning,0818.6,5.00,000.00,025.3,024.1,000.0,033.7,026.6,10.9,0000.0,0001.64,0006.87,0001.03
2023-12-07 23:40:00,SystemResetWarning,0818.7,5.01,000.00,025.3,024.2,000.0,033.7,026.6,11.0,0000.0,0001.59,0005.24,0001.03
2023-12-07 23:41:00,SystemResetWarning,0818.8,5.01,000.00,025.3,024.1,000.0,033.7,026.6,11.1,0000.0,0001.54,0004.65,0001.03
2023-12-07 23:42:00,SystemResetWarning,0818.8,5.00,000.00,025.3,024.1,000.0,033.6,026.6,11.1,0000.0,0001.52,0003.00,0001.02
2023-12-07 23:43:00,SystemResetWarning,0818.7,4.99,000.00,025.2,024.1,000.0,033.6,026.6,11.3,0000.0,0001.49,0002.66,0001.01
2023-12-07 23:44:00,SystemResetWarning,0818.9,4.99,000.00,025.3,024.1,000.0,033.6,026.6,11.2,0000.0,0001.46,0002.56,0000.99
2023-12-07 23:45:00,SystemResetWarning,0819.3,4.99,000.00,025.3,024.1,000.0,033.6,026.6,11.2,0000.0,0001.49,0002.82,0000.99
2023-12-07 23:46:00,SystemResetWarning,0819.0,5.01,000.00,025.3,024.1,000.0,033.6,026.6,11.3,0000.0,0001.46,0002.76,0000.98
2023-12-07 23:47:00,SystemResetWarning,0819.0,5.01,000.00,025.2,024.1,000.0,033.6,026.6,11.3,0000.0,0001.44,0002.74,0000.98
2023-12-07 23:48:00,SystemResetWarning,0819.0,5.01,000.00,025.2,024.1,000.0,033.6,026.6,11.4,0000.0,0001.42,0002.79,0000.97
2023-12-07 23:49:00,SystemResetWarning,0819.1,4.99,000.00,025.2,024.1,000.0,033.6,026.6,11.3,0000.0,0001.42,0002.74,0000.99
2023-12-07 23:50:00,SystemResetWarning,0819.0,4.99,000.00,025.2,024.1,000.0,033.6,026.6,11.4,0000.0,0001.39,0002.65,0000.99
2023-12-07 23:51:00,SystemResetWarning,0819.1,5.00,000.00,025.2,024.1,000.0,033.6,026.6,11.2,0000.0,0001.41,0002.69,0000.99
2023-12-07 23:52:00,SystemResetWarning,0818.9,5.01,000.00,025.2,024.1,000.0,033.6,026.6,11.1,0000.0,0001.40,0002.68,0000.99
2023-12-07 23:53:00,SystemResetWarning,0819.0,5.01,000.00,025.2,024.1,000.0,033.6,026.6,11.2,0000.0,0001.44,0002.75,0001.00
2023-12-07 23:54:00,SystemResetWarning,0819.3,5.00,000.00,025.2,024.1,000.0,033.6,026.6,11.3,0000.0,0001.47,0002.77,0001.00
2023-12-07 23:55:00,SystemResetWarning,0819.2,5.00,000.00,025.2,024.2,000.0,033.6,026.6,11.3,0000.0,0001.53,0002.79,0001.01
2023-12-07 23:56:00,SystemResetWarning,0819.2,4.99,000.00,025.2,024.2,000.0,033.6,026.6,11.4,0000.0,0001.50,0002.60,0001.01
2023-12-07 23:57:00,SystemResetWarning,0819.2,4.99,000.00,025.2,024.2,000.0,033.6,026.6,11.4,0000.0,0001.47,0002.65,0001.00
2023-12-07 23:58:00,SystemResetWarning,0818.7,5.01,000.00,025.3,024.2,000.0,033.6,026.6,11.4,0000.0,0001.44,0002.59,0001.00
2023-12-07 23:59:00,SystemResetWarning,0818.8,5.01,000.00,025.2,024.2,000.0,033.6,026.6,11.5,0000.0,0001.46,0003.32,0000.99
